[[{"header":{"parameterUnit":"m.s-1","parameterCategory":1,"la1":30.2991,"la2":30.254,"lo1":-89.0895,"lo2":-89.0444,"dy":0.0017,"dx":0.0017,"nx":28,"ny":28,"refTime":"2024-08-19T21:00:00:Z","depth":0,"parameterNumber":2,"parameterNumberName":"U-component_of_WINDS"},"data":[0,0,0,0,0,0,0,0,0,0,0,0,0,0,0,0,0,0,0,0,0,0,0,0,0,0,0,0,0,0,0,0,0,0,0,0,0,0,0,0,0,0,0,0,0,0,0,0,0,0,0,0,0,0,0,0,0,0,-0.7266,-0.7267,0,-0.738,-0.7382,-0.7383,-0.7355,-0.7352,-0.735,-0.7348,-0.747,-0.7476,-0.7481,0,0,0,0,0,0,0,0,0,0,0,0,0,-0.7026,-0.7031,-0.7265,-0.7267,-0.7268,-0.738,-0.7382,-0.7383,-0.7355,-0.7352,-0.735,-0.7347,-0.7469,-0.7475,-0.7481,0,0,0,0,0,0,0,0,0,0,0,0,0,-0.7135,-0.7032,-0.7265,-0.7268,-0.7269,-0.738,-0.7382,-0.7384,-0.7356,-0.7352,-0.7349,-0.7346,-0.7466,-0.7474,-0.7482,-0.7599,0,0,-0.7507,-0.751,0,0,0,0,0,0,0,0,-0.7129,-0.7143,-0.7266,-0.7268,-0.7269,-0.735,-0.7342,-0.7456,-0.7356,-0.7323,-0.7348,-0.7344,-0.7433,-0.7444,-0.7473,-0.7605,-0.761,-0.7507,-0.7512,-0.7516,-0.7518,0,0,0,0,0,0,0,-0.7121,-0.7138,-0.7311,-0.7268,-0.727,-0.7264,-0.7276,-0.7364,-0.7396,-0.7326,-0.7324,-0.7337,-0.7434,-0.7465,-0.7476,-0.7612,-0.7507,-0.7514,-0.7519,-0.7522,-0.7849,-0.7852,0,0,0,0,0,0,-0.7111,-0.7132,-0.7307,-0.7315,-0.7189,-0.7271,-0.7284,-0.7327,-0.7395,-0.7402,-0.734,-0.7336,-0.7453,-0.7466,-0.748,-0.7624,-0.7516,-0.7523,-0.7528,-0.7845,-0.785,-0.7854,0,0,0,0,0,0,-0.7106,-0.7127,-0.7303,-0.7223,-0.7245,-0.7279,-0.7328,-0.7331,-0.7363,-0.7406,-0.7412,-0.7366,-0.7451,-0.7468,-0.757,-0.7627,-0.7527,-0.7534,-0.784,-0.7846,-0.7852,-0.7911,0,0,0,0,0,0,-0.71,-0.7126,-0.7169,-0.7224,-0.7249,-0.739,-0.7331,-0.7336,-0.7376,-0.7372,-0.7432,-0.7439,-0.745,-0.7558,-0.7578,-0.7637,-0.754,-0.7835,-0.7843,-0.785,-0.7904,-0.7918,-0.793,0,0,0,0,0,-0.7091,-0.7182,-0.7172,-0.7193,-0.7304,-0.7393,-0.7408,-0.7417,-0.7381,-0.7426,-0.7454,-0.7437,-0.7617,-0.7569,-0.7591,-0.7653,-0.7832,-0.7841,-0.7849,-0.7898,-0.7915,-0.7929,0,0,0,0,0,0,-0.7135,-0.7189,-0.7179,-0.7289,-0.7337,-0.7388,-0.7446,-0.7435,-0.7495,-0.7488,-0.7498,-0.7512,-0.7616,-0.7644,-0.7589,-0.7771,-0.772,-0.7733,-0.7749,-0.7766,-0.7778,-0.7771,-0.7547,0,0,0,0,0,-0.7157,-0.7223,-0.7267,-0.7361,-0.7385,-0.7411,-0.745,-0.7453,-0.7504,-0.7524,-0.7559,-0.761,-0.7678,-0.7723,-0.7788,-0.7907,-0.7921,-0.796,-0.7973,-0.7983,-0.7996,-0.8064,-0.8082,-0.7882,-0.7882,-0.7882,0,0,-0.7204,-0.7242,-0.7283,-0.7371,-0.7408,-0.7478,-0.7429,-0.7504,-0.7557,-0.7536,-0.7635,-0.7662,-0.7719,-0.7831,-0.7881,-0.7857,-0.8054,-0.7994,-0.8002,-0.801,-0.8074,-0.8093,-0.811,-0.7888,-0.7887,-0.7886,0,0,-0.7327,-0.7361,-0.7443,-0.7481,-0.7538,-0.7554,-0.7574,-0.7628,-0.7645,-0.7743,-0.7729,-0.7792,-0.7909,-0.7951,-0.7988,-0.8126,-0.8114,-0.8147,-0.8216,-0.8282,-0.8297,-0.8311,-0.8364,-0.8382,-0.8159,-0.8159,-0.8159,0,-0.7379,-0.7482,-0.7488,-0.7565,-0.7605,-0.7587,-0.7673,-0.771,-0.7785,-0.7814,-0.7785,-0.7932,-0.7969,-0.8091,-0.8125,-0.8154,-0.8179,-0.8142,-0.8294,-0.8308,-0.8322,-0.8372,-0.8391,-0.8163,-0.8162,-0.8162,-0.8162,0,-0.7545,-0.7617,-0.7677,-0.775,-0.7796,-0.7877,-0.7896,-0.7943,-0.7942,-0.7962,-0.8064,-0.8108,-0.8182,-0.8211,-0.8211,-0.8334,-0.8317,-0.8291,-0.8241,-0.8345,-0.8392,-0.8411,-0.8168,-0.8167,-0.8166,-0.8165,0,0,-0.77,-0.7773,-0.7796,-0.7829,-0.789,-0.7947,-0.8027,-0.8099,-0.814,-0.8192,-0.8262,-0.8361,-0.8338,-0.8379,-0.8384,-0.8441,-0.8551,-0.8408,-0.841,-0.8436,-0.8693,-0.8714,-0.8736,-0.8542,-0.8546,-0.8548,-0.8689,0,-0.783,-0.7971,-0.7978,-0.8107,-0.8176,-0.8159,-0.823,-0.8276,-0.8297,-0.836,-0.8383,-0.8454,-0.8416,-0.8442,-0.8497,-0.8526,-0.8604,-0.8516,-0.861,-0.8613,-0.8599,-0.876,-0.8783,-0.8913,-0.8707,-0.871,-0.8712,0,-0.8001,-0.8057,-0.8193,-0.8245,-0.8274,-0.8338,-0.8405,-0.8463,-0.8516,-0.8527,-0.8574,-0.857,-0.8655,-0.8599,-0.8718,-0.8658,-0.8697,-0.8717,-0.8722,-0.8734,-0.8671,-0.8779,-0.8955,-0.8976,-0.8741,-0.8739,-0.8737,0,-0.8103,-0.8214,-0.831,-0.8338,-0.8401,-0.8446,-0.8475,-0.8523,-0.8566,-0.8625,-0.8654,-0.8722,-0.876,-0.8814,-0.8829,-0.8787,-0.8949,-0.8894,-0.8963,-0.8963,-0.9001,-0.8999,-0.9188,-0.9021,-0.902,-0.902,-0.902,0,-0.8249,-0.8334,-0.8357,-0.8416,-0.8511,-0.8519,-0.8613,-0.8639,-0.8682,-0.8748,-0.8738,-0.88,-0.8815,-0.8881,-0.8894,-0.8992,-0.9008,-0.9022,-0.9025,-0.9025,-0.9023,-0.9053,-0.9045,-0.9025,-0.9024,-0.9023,-0.9022,0,-0.8382,-0.84,-0.8504,-0.8554,-0.8569,-0.8637,-0.8681,-0.8739,-0.8758,-0.8842,-0.8862,-0.8893,-0.897,-0.899,-0.9082,-0.909,-0.9207,-0.92,-0.9189,-0.919,-0.926,-0.9254,-0.9477,-0.9508,-0.9317,-0.9319,-0.932,0,-0.8475,-0.854,-0.8597,-0.8639,-0.8669,-0.8738,-0.8782,-0.8792,-0.8838,-0.8903,-0.8954,-0.9029,-0.909,-0.9214,-0.9246,-0.9317,-0.9313,-0.9387,-0.9324,-0.9323,-0.9318,-0.9316,-0.9323,-0.94,-0.9402,-0.9403,-0.9404,0,-0.864,-0.8646,-0.8708,-0.8775,-0.8827,-0.888,-0.893,-0.8966,-0.8984,-0.9037,-0.9114,-0.9162,-0.9255,-0.9331,-0.9403,-0.9434,-0.9424,-0.9423,-0.9444,-0.9446,-0.9438,-0.9446,-0.9225,-0.9419,-0.9418,-0.9416,-0.9416,-0.9415,-0.8758,-0.8815,-0.8864,-0.8935,-0.8974,-0.9022,-0.9079,-0.9105,-0.917,-0.9246,-0.9248,-0.9334,-0.9386,-0.9481,-0.9516,-0.9584,-0.9563,-0.9591,-0.9599,-0.9607,-0.9615,-0.9425,-0.9597,-0.9596,-0.9596,-0.9596,-0.9596,0,-0.8925,-0.8955,-0.902,-0.9091,-0.9147,-0.9129,-0.9185,-0.9234,-0.9309,-0.9357,-0.9417,-0.9508,-0.9581,-0.9619,-0.9692,-0.974,-0.9737,-0.9759,-0.9757,-0.9765,-0.9628,-0.9605,-0.976,-0.976,-0.976,-0.976,-0.976,-0.976,-0.9018,-0.9115,-0.9127,-0.9244,-0.9274,-0.9357,-0.9391,-0.9435,-0.9474,-0.9575,-0.9636,-0.9659,-0.9704,-0.9781,-0.9849,-0.9858,-0.9887,-0.9912,-0.9919,-0.9791,-0.9775,-0.9759,-0.9737,-0.9918,-0.9918,-1.0051,-1.0052,-1.0053]},{"header":{"parameterUnit":"m.s-1","parameterCategory":1,"la1":30.2991,"la2":30.254,"lo1":-89.0895,"lo2":-89.0444,"dy":0.0017,"dx":0.0017,"nx":28,"ny":28,"refTime":"2024-08-19T21:00:00:Z","depth":0,"parameterNumber":3,"parameterNumberName":"V-component_of_WINDS"},"data":[0,0,0,0,0,0,0,0,0,0,0,0,0,0,0,0,0,0,0,0,0,0,0,0,0,0,0,0,0,0,0,0,0,0,0,0,0,0,0,0,0,0,0,0,0,0,0,0,0,0,0,0,0,0,0,0,0,0,-3.289,-3.289,0,-3.2907,-3.2908,-3.2908,-3.283,-3.2828,-3.2825,-3.2823,-3.284,-3.2843,-3.2845,0,0,0,0,0,0,0,0,0,0,0,0,0,-3.2789,-3.2791,-3.289,-3.289,-3.2891,-3.2907,-3.2908,-3.2908,-3.283,-3.2827,-3.2825,-3.2822,-3.284,-3.2843,-3.2846,0,0,0,0,0,0,0,0,0,0,0,0,0,-3.2822,-3.2792,-3.289,-3.2854,-3.2851,-3.2907,-3.2908,-3.2908,-3.2831,-3.2827,-3.2824,-3.2821,-3.2839,-3.2842,-3.2846,-3.2938,0,0,-3.2858,-3.286,0,0,0,0,0,0,0,0,-3.282,-3.2826,-3.2859,-3.2857,-3.2853,-3.2863,-3.2878,-3.2918,-3.2832,-3.2838,-3.2823,-3.2819,-3.2851,-3.2853,-3.2864,-3.2939,-3.294,-3.2858,-3.2861,-3.2862,-3.2863,0,0,0,0,0,0,0,-3.2818,-3.2825,-3.2897,-3.286,-3.2856,-3.2836,-3.2837,-3.2885,-3.2863,-3.2838,-3.2832,-3.2835,-3.2848,-3.286,-3.2864,-3.294,-3.2858,-3.2862,-3.2864,-3.2865,-3.309,-3.3093,0,0,0,0,0,0,-3.2821,-3.2823,-3.2896,-3.2897,-3.2828,-3.2841,-3.2842,-3.2863,-3.2863,-3.2859,-3.2838,-3.2831,-3.2856,-3.2859,-3.2864,-3.2971,-3.2862,-3.2866,-3.2868,-3.3086,-3.3091,-3.3095,0,0,0,0,0,0,-3.2819,-3.2828,-3.2896,-3.2859,-3.2866,-3.2846,-3.2871,-3.2865,-3.2877,-3.2863,-3.2859,-3.2854,-3.2853,-3.2859,-3.292,-3.2971,-3.2868,-3.2871,-3.3082,-3.3088,-3.3093,-3.3187,0,0,0,0,0,0,-3.2816,-3.2828,-3.2863,-3.286,-3.2868,-3.2952,-3.2874,-3.2868,-3.2884,-3.2876,-3.2877,-3.2874,-3.2851,-3.2915,-3.2924,-3.2974,-3.2874,-3.3077,-3.3084,-3.3091,-3.3179,-3.3195,-3.3208,0,0,0,0,0,-3.2813,-3.2889,-3.2865,-3.2874,-3.2912,-3.2955,-3.296,-3.2931,-3.2889,-3.2924,-3.2914,-3.2874,-3.2964,-3.2922,-3.2931,-3.2984,-3.3074,-3.3082,-3.309,-3.3172,-3.3191,-3.3208,0,0,0,0,0,0,-3.2898,-3.2888,-3.2862,-3.2939,-3.2948,-3.2942,-3.2985,-3.2953,-3.2974,-3.2966,-3.2929,-3.293,-3.2998,-3.2996,-3.295,-3.3072,-3.3011,-3.3022,-3.307,-3.3088,-3.3103,-3.3102,-3.2877,0,0,0,0,0,-3.2926,-3.2962,-3.2951,-3.302,-3.3026,-3.3005,-3.3023,-3.3,-3.3009,-3.3012,-3.3007,-3.3017,-3.3047,-3.3067,-3.3094,-3.3178,-3.3177,-3.3219,-3.3233,-3.3245,-3.3255,-3.3298,-3.3317,-3.3122,-3.3121,-3.3121,0,0,-3.2984,-3.2982,-3.3008,-3.3037,-3.3042,-3.308,-3.3009,-3.3052,-3.308,-3.3019,-3.3076,-3.3073,-3.3081,-3.3154,-3.3186,-3.3155,-3.3308,-3.3256,-3.3265,-3.3268,-3.3309,-3.3327,-3.3344,-3.3127,-3.3126,-3.3125,0,0,-3.3108,-3.3111,-3.3169,-3.3175,-3.3183,-3.3168,-3.3182,-3.318,-3.3176,-3.3233,-3.3188,-3.322,-3.3272,-3.328,-3.3291,-3.3417,-3.3381,-3.3427,-3.3503,-3.3546,-3.3561,-3.3575,-3.362,-3.3636,-3.3436,-3.3437,-3.3437,0,-3.3179,-3.3235,-3.3203,-3.3249,-3.3263,-3.3209,-3.3267,-3.3274,-3.3291,-3.3302,-3.3267,-3.3332,-3.3333,-3.3407,-3.3438,-3.3448,-3.3462,-3.3427,-3.3562,-3.3575,-3.3587,-3.3629,-3.3646,-3.3442,-3.3442,-3.3441,-3.3441,0,-3.3321,-3.336,-3.3406,-3.3423,-3.3442,-3.3494,-3.347,-3.3493,-3.3468,-3.3457,-3.3515,-3.3515,-3.3541,-3.3557,-3.3533,-3.3627,-3.3607,-3.3568,-3.3506,-3.3612,-3.3651,-3.3667,-3.345,-3.3448,-3.3447,-3.3445,0,0,-3.3501,-3.3499,-3.3516,-3.3523,-3.3527,-3.3557,-3.3606,-3.3631,-3.3651,-3.3664,-3.3704,-3.375,-3.3713,-3.3725,-3.3702,-3.374,-3.3839,-3.3695,-3.3695,-3.3722,-3.3942,-3.3972,-3.3991,-3.3815,-3.3818,-3.3821,-3.3941,0,-3.3622,-3.3706,-3.3679,-3.3764,-3.3799,-3.3748,-3.379,-3.3798,-3.3788,-3.3817,-3.3806,-3.3839,-3.3788,-3.3795,-3.383,-3.382,-3.3883,-3.3811,-3.3852,-3.3854,-3.3852,-3.4012,-3.4043,-3.4157,-3.3956,-3.3959,-3.3961,0,-3.3776,-3.3795,-3.3884,-3.3882,-3.3895,-3.3934,-3.3955,-3.3982,-3.3989,-3.3979,-3.3993,-3.3961,-3.4009,-3.3947,-3.4012,-3.3963,-3.3978,-3.3976,-3.3979,-3.3982,-3.3914,-3.4019,-3.4193,-3.421,-3.3985,-3.3983,-3.3981,0,-3.3898,-3.3946,-3.4005,-3.4012,-3.4011,-3.4039,-3.404,-3.4043,-3.406,-3.4078,-3.4088,-3.4111,-3.4124,-3.4142,-3.4117,-3.4075,-3.4185,-3.4122,-3.4178,-3.4179,-3.4204,-3.4203,-3.4384,-3.4214,-3.4214,-3.4214,-3.4213,0,-3.4037,-3.4093,-3.4059,-3.4096,-3.4157,-3.4124,-3.4185,-3.418,-3.4183,-3.4217,-3.4174,-3.4207,-3.4172,-3.4202,-3.4183,-3.4239,-3.4245,-3.4238,-3.4233,-3.4242,-3.4243,-3.4252,-3.4243,-3.4218,-3.4217,-3.4216,-3.4215,0,-3.4184,-3.4163,-3.4224,-3.4218,-3.4217,-3.4263,-3.4257,-3.429,-3.4277,-3.4321,-3.4329,-3.4309,-3.4342,-3.4318,-3.4351,-3.4338,-3.4412,-3.4395,-3.441,-3.4405,-3.4463,-3.4458,-3.4656,-3.468,-3.4495,-3.4497,-3.4498,0,-3.4274,-3.4316,-3.4314,-3.4334,-3.4337,-3.437,-3.4386,-3.4355,-3.4374,-3.4384,-3.4416,-3.4445,-3.4466,-3.452,-3.4509,-3.4533,-3.4516,-3.4584,-3.452,-3.4528,-3.4517,-3.4515,-3.4519,-3.4597,-3.4599,-3.4601,-3.4602,0,-3.4437,-3.4424,-3.445,-3.4472,-3.4493,-3.4509,-3.4521,-3.454,-3.4508,-3.4531,-3.4564,-3.4581,-3.4613,-3.4642,-3.4662,-3.4662,-3.4627,-3.4622,-3.4637,-3.4647,-3.4654,-3.4651,-3.4445,-3.4618,-3.4617,-3.4615,-3.4615,-3.4614,-3.4558,-3.4592,-3.4596,-3.4626,-3.4632,-3.4644,-3.4675,-3.4666,-3.4692,-3.4716,-3.4696,-3.4735,-3.474,-3.4763,-3.4767,-3.4797,-3.4769,-3.479,-3.4795,-3.4801,-3.4809,-3.4649,-3.48,-3.48,-3.4799,-3.4799,-3.4799,0,-3.4718,-3.4717,-3.4745,-3.4764,-3.4787,-3.4752,-3.4763,-3.4785,-3.482,-3.4827,-3.4849,-3.4886,-3.4914,-3.4904,-3.4928,-3.4954,-3.4938,-3.4961,-3.4959,-3.4959,-3.4833,-3.4818,-3.4973,-3.4973,-3.4973,-3.4973,-3.4973,-3.4973,-3.4804,-3.486,-3.4848,-3.4907,-3.4906,-3.4944,-3.4954,-3.4965,-3.497,-3.5014,-3.5036,-3.5029,-3.503,-3.5053,-3.5077,-3.5073,-3.5084,-3.5113,-3.5104,-3.4986,-3.4968,-3.4952,-3.4938,-3.5116,-3.5116,-3.5228,-3.5229,-3.523]}]]